Phuket, Thailand

12:50 PM +07 on October 22, 2017 (GMT +0700)
Phuket International

Weather History for VTSP - March, 2014

Change the Weather History Date:

Monday, March 31, 2014

  Actual Average Record
Temperature  
Mean Temperature 83 °F -  
Max Temperature 92 °F 91 °F 98 °F (1998)
Min Temperature 74 °F 77 °F 71 °F (2011)
Cooling Degree Days 18    
Growing Degree Days 33 (Base 50)    
Moisture  
Dew Point 76 °F    
Average Humidity 75    
Maximum Humidity 94    
Minimum Humidity 51    
Precipitation  
Precipitation 0.51 in 0.21 in - ()
Sea Level Pressure  
Sea Level Pressure 29.81 in    
Wind  
Wind Speed 5 mph ()    
Max Wind Speed 16 mph    
Max Gust Speed 29 mph    
Visibility 5.6 miles    
Events Rain , Thunderstorm    
Averages and records for this station are not official NWS values.
T = Trace of Precipitation, MM = Missing Value Source: Averaged Metar Reports

Daily Weather History Graph

Daily Weather History Graph

Search for Another Location

Airport or City:

Trip Planner

Search our weather history database for the weather conditions in past years. The results will help you decide how hot, cold, wet, or windy it might be!

Date:

Astronomy

Mar. 31, 2014 Rise Set
Actual Time 6:25 AM +07 6:36 PM +07
Civil Twilight 6:04 AM +07 6:57 PM +07
Nautical Twilight 5:40 AM +07 7:21 PM +07
Astronomical Twilight 5:15 AM +07 7:46 PM +07
Moon 6:35 AM +07 (3/31) 7:08 PM +07 (3/31)
Length of Visible Light 12h 53m
Length of Day
12h 11m
New Moon, 0% of the Moon is Illuminated
Mar 31
New Moon
Apr 7
First Quarter
Apr 15
Full
Apr 22
Last Quarter
Apr 29
New

Hourly Weather History & Observations

Time (+07) Temp. Heat Index Dew Point Humidity Pressure Visibility Wind Dir Wind Speed Gust Speed Precip Events Conditions
12:00 AM 78.8 °F - 75.2 °F 89% 29.83 in 5.0 mi Calm Calm - N/A   Mostly Cloudy
12:30 AM 78.8 °F - 75.2 °F 89% 29.80 in 5.0 mi Calm Calm - N/A   Mostly Cloudy
1:00 AM 80 °F - 76 °F 83% 29.75 in 5 mi Calm Calm - -   Scattered Clouds
1:00 AM 78.8 °F - 75.2 °F 89% 29.80 in 5.0 mi Calm Calm - N/A   Mostly Cloudy
1:30 AM 78.8 °F - 75.2 °F 89% 29.77 in 5.0 mi Calm Calm - N/A   Mostly Cloudy
2:30 AM 78.8 °F - 75.2 °F 89% 29.77 in 5.6 mi Calm Calm - N/A   Mostly Cloudy
3:00 AM 78.8 °F - 75.2 °F 89% 29.77 in 5.6 mi Calm Calm - N/A   Mostly Cloudy
4:00 AM 79 °F - 76 °F 89% 29.72 in 6 mi Calm Calm - -   Scattered Clouds
4:00 AM 78.8 °F - 75.2 °F 89% 29.74 in 5.6 mi Calm Calm - N/A   Mostly Cloudy
4:30 AM 78.8 °F - 75.2 °F 89% 29.74 in 6.2 mi Calm Calm - N/A   Mostly Cloudy
5:00 AM 77.0 °F - 75.2 °F 94% 29.74 in 6.2 mi Calm Calm - N/A   Scattered Clouds
5:30 AM 78.8 °F - 75.2 °F 89% 29.74 in 6.2 mi Calm Calm - N/A   Scattered Clouds
6:00 AM 78.8 °F - 75.2 °F 89% 29.77 in 6.2 mi East 3.5 mph - N/A   Mostly Cloudy
6:30 AM 78.8 °F - 75.2 °F 89% 29.77 in 6.2 mi East 3.5 mph - N/A   Mostly Cloudy
7:00 AM 79 °F - 76 °F 89% 29.75 in 6 mi Calm Calm - -   Scattered Clouds
7:00 AM 78.8 °F - 75.2 °F 89% 29.77 in 6.2 mi ENE 6.9 mph - N/A   Mostly Cloudy
7:30 AM 80.6 °F 86.2 °F 75.2 °F 84% 29.80 in 6.2 mi Calm Calm - N/A   Mostly Cloudy
8:00 AM 84.2 °F 92.3 °F 75.2 °F 74% 29.80 in 6.2 mi ENE 5.8 mph - N/A   Mostly Cloudy
8:30 AM 86.0 °F 95.1 °F 75.2 °F 70% 29.80 in 6.2 mi ENE 8.1 mph - N/A   Mostly Cloudy
9:00 AM 87.8 °F 97.6 °F 75.2 °F 66% 29.83 in 6.2 mi ENE 9.2 mph - N/A   Mostly Cloudy
9:30 AM 87.8 °F 97.6 °F 75.2 °F 66% 29.83 in 6.2 mi ENE 8.1 mph - N/A   Mostly Cloudy
10:00 AM 89 °F - 78 °F 63% 29.81 in 6 mi ESE 6.9 mph - -   Scattered Clouds
10:00 AM 91.4 °F 102.5 °F 75.2 °F 59% 29.83 in 6.2 mi East 6.9 mph - N/A   Mostly Cloudy
10:30 AM 91.4 °F 100.1 °F 73.4 °F 55% 29.83 in 6.2 mi East 8.1 mph - N/A   Mostly Cloudy
11:00 AM 93.2 °F 105.0 °F 75.2 °F 56% 29.83 in 6.2 mi East 6.9 mph - N/A   Mostly Cloudy
11:30 AM 89.6 °F 99.8 °F 75.2 °F 62% 29.83 in 6.2 mi East 6.9 mph - N/A   Mostly Cloudy
12:00 PM 89.6 °F 99.8 °F 75.2 °F 62% 29.80 in 6.2 mi West 6.9 mph - N/A   Mostly Cloudy
12:30 PM 91.4 °F 102.5 °F 75.2 °F 59% 29.80 in 6.2 mi West 11.5 mph - N/A   Mostly Cloudy
1:00 PM 92 °F - 76 °F 51% 29.78 in 6 mi West 10.4 mph - -   Scattered Clouds
1:00 PM 89.6 °F 99.8 °F 75.2 °F 62% 29.77 in 6.2 mi West 9.2 mph - N/A   Mostly Cloudy
1:30 PM 91.4 °F 102.5 °F 75.2 °F 59% 29.77 in 6.2 mi West 10.4 mph - N/A   Mostly Cloudy
2:00 PM 91.4 °F 102.5 °F 75.2 °F 59% 29.74 in 6.2 mi West 11.5 mph - N/A   Mostly Cloudy
2:30 PM 89.6 °F 102.2 °F 77.0 °F 66% 29.74 in 6.2 mi West 12.7 mph - N/A   Mostly Cloudy
3:00 PM 89.6 °F 99.8 °F 75.2 °F 62% 31.48 in 6.2 mi West 12.7 mph - N/A   Mostly Cloudy
3:30 PM 89.6 °F 99.8 °F 75.2 °F 62% 29.71 in 6.2 mi West 12.7 mph - N/A   Mostly Cloudy
4:00 PM 91 °F - 78 °F 57% 29.70 in 6 mi NW 9.2 mph - -   Scattered Clouds
4:00 PM 91.4 °F 102.5 °F 75.2 °F 59% 29.71 in 6.2 mi West 13.8 mph - N/A   Mostly Cloudy
4:30 PM 89.6 °F 99.8 °F 75.2 °F 62% 29.71 in 6.2 mi West 13.8 mph - N/A   Mostly Cloudy
5:00 PM 87.8 °F 99.7 °F 77.0 °F 70% 29.71 in 6.2 mi West 12.7 mph - N/A   Mostly Cloudy
5:30 PM 87.8 °F 99.7 °F 77.0 °F 70% 29.71 in 6.2 mi West 15.0 mph 28.8 mph N/A   Mostly Cloudy
6:00 PM 86.0 °F 96.9 °F 77.0 °F 74% 29.71 in 6.2 mi West 13.8 mph - N/A   Mostly Cloudy
6:30 PM 86.0 °F 95.1 °F 75.2 °F 70% 29.74 in 6.2 mi West 11.5 mph - N/A   Mostly Cloudy
7:00 PM 88 °F - 79 °F 68% 29.71 in 6 mi West 10.4 mph - -   Scattered Clouds
7:00 PM 86.0 °F 96.9 °F 77.0 °F 74% 29.74 in 5.0 mi West 10.4 mph - N/A   Mostly Cloudy
7:30 PM 86.0 °F 96.9 °F 77.0 °F 74% 29.77 in 5.0 mi West 10.4 mph - N/A   Mostly Cloudy
8:00 PM 86.0 °F 96.9 °F 77.0 °F 74% 29.77 in 5.0 mi West 12.7 mph - N/A   Mostly Cloudy
8:30 PM 86.0 °F 96.9 °F 77.0 °F 74% 29.77 in 5.0 mi West 11.5 mph - N/A   Mostly Cloudy
9:00 PM 86.0 °F 96.9 °F 77.0 °F 74% 29.77 in 5.0 mi West 9.2 mph - N/A   Mostly Cloudy
9:30 PM 86.0 °F 96.9 °F 77.0 °F 74% 29.80 in 5.0 mi WNW 8.1 mph - N/A Thunderstorm Thunderstorm
10:00 PM 80 °F - 73 °F 74% 29.80 in 3 mi ENE 9.2 mph - - Rain , Thunderstorm Thunderstorms and Rain
10:00 PM 78.8 °F - 71.6 °F 78% 29.83 in 3.1 mi NE 16.1 mph - N/A Rain Rain
10:30 PM 75.2 °F - 73.4 °F 94% 29.86 in 1.9 mi ESE 3.5 mph - N/A Rain Rain
11:00 PM 75.2 °F - 73.4 °F 94% 29.83 in 4.3 mi WSW 5.8 mph - N/A Rain Rain
11:30 PM 75.2 °F - 73.4 °F 94% 29.86 in 4.3 mi WSW 4.6 mph - N/A Rain Rain